[[{"header":{"parameterUnit":"m.s-1","parameterCategory":2,"la1":30.2991,"la2":30.254,"lo1":-89.0895,"lo2":-89.0444,"dy":0.0017,"dx":0.0017,"nx":28,"ny":28,"refTime":"2023-10-24T09:00:00:Z","depth":"0","parameterNumber":2,"parameterNumberName":"U-component_of_CURRENTS"},"data":[0,0,0,0,0,0,0,0,0,0,0,0,0,0,0,0,0,0,0,0,0,0,0,0,0,0,0,0,0,0,0,0,0,0,0,0,0,0,0,0,0,0,0,0,0,0,0,0,0,0,0,0,0,0,0,0,0,0,-0.2594,-0.2595,0,-0.2642,-0.2642,-0.2642,-0.2651,-0.2651,-0.2651,-0.2651,-0.2632,-0.2632,-0.2631,0,0,0,0,0,0,0,0,0,0,0,0,0,-0.2531,-0.2531,-0.2594,-0.2595,-0.2596,-0.2642,-0.2642,-0.2642,-0.2651,-0.2651,-0.2651,-0.2651,-0.2633,-0.2632,-0.2631,0,0,0,0,0,0,0,0,0,0,0,0,0,-0.2561,-0.2531,-0.2593,-0.2609,-0.2612,-0.2642,-0.2642,-0.2642,-0.2651,-0.2651,-0.2651,-0.2651,-0.2633,-0.2632,-0.2631,-0.2624,0,0,-0.2628,-0.2628,0,0,0,0,0,0,0,0,-0.256,-0.2563,-0.2606,-0.2608,-0.2611,-0.2645,-0.2613,-0.2634,-0.2651,-0.2631,-0.2651,-0.2651,-0.2634,-0.2633,-0.2635,-0.2623,-0.2622,-0.2628,-0.2628,-0.2627,-0.2627,0,0,0,0,0,0,0,-0.2557,-0.2561,-0.2608,-0.2607,-0.261,-0.2622,-0.2626,-0.2617,-0.2626,-0.2633,-0.2635,-0.2648,-0.2634,-0.2636,-0.2635,-0.2622,-0.2628,-0.2628,-0.2627,-0.2627,-0.2648,-0.2649,0,0,0,0,0,0,-0.2561,-0.2559,-0.2606,-0.261,-0.2591,-0.2623,-0.2627,-0.263,-0.2627,-0.2629,-0.2648,-0.2648,-0.2637,-0.2636,-0.2634,-0.2642,-0.2628,-0.2627,-0.2626,-0.2647,-0.2648,-0.265,0,0,0,0,0,0,-0.2559,-0.2564,-0.2604,-0.259,-0.2597,-0.2625,-0.2627,-0.2631,-0.2645,-0.2641,-0.264,-0.2661,-0.2637,-0.2635,-0.2637,-0.2641,-0.2626,-0.2626,-0.2646,-0.2647,-0.2649,-0.2647,0,0,0,0,0,0,-0.2556,-0.2562,-0.2559,-0.259,-0.2598,-0.2651,-0.2628,-0.2632,-0.2655,-0.2656,-0.2651,-0.2649,-0.2637,-0.2639,-0.2636,-0.2639,-0.2625,-0.2644,-0.2647,-0.2648,-0.2646,-0.2649,-0.2651,0,0,0,0,0,-0.2554,-0.2572,-0.2558,-0.2564,-0.2594,-0.2653,-0.2659,-0.2675,-0.2656,-0.2682,-0.2662,-0.265,-0.265,-0.2638,-0.2635,-0.2638,-0.2643,-0.2646,-0.2648,-0.2645,-0.2648,-0.2651,0,0,0,0,0,0,-0.2551,-0.2576,-0.2561,-0.2585,-0.2622,-0.2657,-0.2678,-0.2681,-0.2685,-0.2676,-0.2655,-0.2653,-0.2663,-0.2655,-0.2642,-0.2655,-0.2648,-0.265,-0.2647,-0.265,-0.2652,-0.2631,-0.2624,0,0,0,0,0,-0.2544,-0.2554,-0.259,-0.2606,-0.2625,-0.2644,-0.2664,-0.2681,-0.2694,-0.2696,-0.2682,-0.2671,-0.2669,-0.2663,-0.2667,-0.2663,-0.2617,-0.2668,-0.2671,-0.2673,-0.2657,-0.2618,-0.2614,-0.2658,-0.2658,-0.2657,0,0,-0.2546,-0.256,-0.2564,-0.2604,-0.2623,-0.2648,-0.2657,-0.2704,-0.2707,-0.2691,-0.2678,-0.2683,-0.2675,-0.2677,-0.268,-0.2668,-0.2631,-0.2676,-0.2677,-0.266,-0.2619,-0.2615,-0.261,-0.2659,-0.2659,-0.2659,0,0,-0.2557,-0.2568,-0.2576,-0.2609,-0.2652,-0.2668,-0.2684,-0.2719,-0.272,-0.2728,-0.271,-0.271,-0.271,-0.2693,-0.2687,-0.2705,-0.2654,-0.2721,-0.2699,-0.2662,-0.2657,-0.2652,-0.2551,-0.2537,-0.271,-0.271,-0.271,0,-0.2545,-0.2559,-0.2594,-0.2615,-0.2632,-0.2673,-0.2689,-0.2705,-0.2729,-0.2716,-0.2732,-0.2709,-0.2712,-0.2682,-0.2697,-0.2706,-0.2658,-0.2683,-0.2661,-0.2655,-0.265,-0.2548,-0.2533,-0.271,-0.271,-0.271,-0.271,0,-0.2557,-0.2573,-0.2593,-0.2608,-0.264,-0.2676,-0.2705,-0.2715,-0.2718,-0.2721,-0.2713,-0.2715,-0.2695,-0.2709,-0.2708,-0.2676,-0.2642,-0.2674,-0.2643,-0.2645,-0.2538,-0.2522,-0.2711,-0.2711,-0.2711,-0.2711,0,0,-0.249,-0.2578,-0.2575,-0.258,-0.2638,-0.266,-0.2671,-0.2683,-0.2658,-0.2691,-0.2651,-0.2673,-0.2672,-0.2665,-0.2664,-0.2636,-0.256,-0.264,-0.2638,-0.2519,-0.2422,-0.2385,-0.2363,-0.259,-0.2589,-0.2587,-0.2346,0,-0.2469,-0.2504,-0.2553,-0.2568,-0.2583,-0.2627,-0.2623,-0.2639,-0.2647,-0.2623,-0.2633,-0.2615,-0.2656,-0.2642,-0.2624,-0.2589,-0.2524,-0.2618,-0.2455,-0.2448,-0.2401,-0.2347,-0.2322,-0.2107,-0.233,-0.2328,-0.2326,0,-0.243,-0.2461,-0.2479,-0.2525,-0.2531,-0.2541,-0.2524,-0.2537,-0.2534,-0.2542,-0.2539,-0.2548,-0.2515,-0.256,-0.2464,-0.2523,-0.2464,-0.243,-0.2421,-0.2375,-0.2383,-0.2152,-0.2069,-0.2079,-0.2301,-0.2303,-0.2304,0,-0.2326,-0.2394,-0.2399,-0.2419,-0.2479,-0.247,-0.249,-0.2494,-0.2483,-0.2481,-0.2469,-0.2452,-0.2429,-0.2385,-0.2347,-0.2394,-0.2222,-0.2275,-0.2161,-0.2155,-0.2094,-0.2087,-0.1987,-0.2173,-0.2174,-0.2174,-0.2175,0,-0.2261,-0.2255,-0.235,-0.2348,-0.2327,-0.2395,-0.2361,-0.2379,-0.2386,-0.2357,-0.2413,-0.2373,-0.2394,-0.2321,-0.2285,-0.2159,-0.2163,-0.2119,-0.2093,-0.2091,-0.2087,-0.2065,-0.209,-0.2165,-0.2167,-0.2169,-0.2171,0,-0.2119,-0.2196,-0.22,-0.2267,-0.2278,-0.2252,-0.2294,-0.226,-0.2302,-0.226,-0.226,-0.2283,-0.2205,-0.2176,-0.2079,-0.2059,-0.1919,-0.1903,-0.1872,-0.1848,-0.1788,-0.1814,-0.162,-0.1572,-0.1724,-0.1721,-0.172,0,-0.2035,-0.203,-0.211,-0.2098,-0.2119,-0.212,-0.2104,-0.2186,-0.2168,-0.2191,-0.2147,-0.2103,-0.2059,-0.1904,-0.1866,-0.1743,-0.1767,-0.1637,-0.1744,-0.1743,-0.1753,-0.1764,-0.1741,-0.163,-0.1628,-0.1626,-0.1624,0,-0.185,-0.1895,-0.1908,-0.1918,-0.1911,-0.1927,-0.1934,-0.1928,-0.2005,-0.1989,-0.1963,-0.1941,-0.1857,-0.1775,-0.1662,-0.1593,-0.1628,-0.159,-0.1607,-0.1672,-0.1657,-0.1613,-0.1792,-0.1606,-0.1607,-0.1609,-0.161,-0.1611,-0.1681,-0.166,-0.1702,-0.1694,-0.1712,-0.1725,-0.1695,-0.1735,-0.1726,-0.1721,-0.1771,-0.1743,-0.1734,-0.1605,-0.1531,-0.1447,-0.1461,-0.1431,-0.1449,-0.145,-0.1457,-0.157,-0.1371,-0.1372,-0.1372,-0.1372,-0.1373,0,-0.1459,-0.1474,-0.1463,-0.1484,-0.1466,-0.1544,-0.1554,-0.1525,-0.1493,-0.1552,-0.1545,-0.1581,-0.1514,-0.1501,-0.1434,-0.136,-0.1333,-0.1309,-0.1342,-0.1316,-0.1417,-0.1476,-0.1272,-0.1272,-0.1272,-0.1272,-0.1272,-0.1272,-0.1338,-0.1275,-0.1305,-0.1235,-0.1254,-0.121,-0.1206,-0.1205,-0.1241,-0.1259,-0.132,-0.1412,-0.143,-0.1512,-0.1426,-0.1345,-0.1308,-0.1241,-0.123,-0.1367,-0.1382,-0.1397,-0.1459,-0.1255,-0.1255,-0.1115,-0.1114,-0.1114]},{"header":{"parameterUnit":"m.s-1","parameterCategory":2,"la1":30.2991,"la2":30.254,"lo1":-89.0895,"lo2":-89.0444,"dy":0.0017,"dx":0.0017,"nx":28,"ny":28,"refTime":"2023-10-24T09:00:00:Z","depth":"0","parameterNumber":3,"parameterNumberName":"V-component_of_CURRENTS"},"data":[0,0,0,0,0,0,0,0,0,0,0,0,0,0,0,0,0,0,0,0,0,0,0,0,0,0,0,0,0,0,0,0,0,0,0,0,0,0,0,0,0,0,0,0,0,0,0,0,0,0,0,0,0,0,0,0,0,0,-0.0144,-0.0142,0,-0.0007,-0.0005,-0.0004,0.0084,0.0085,0.0086,0.0086,0.0215,0.0218,0.0221,0,0,0,0,0,0,0,0,0,0,0,0,0,-0.0276,-0.0274,-0.0144,-0.0142,-0.0141,-0.0007,-0.0005,-0.0003,0.0084,0.0085,0.0086,0.0086,0.0214,0.0217,0.0221,0,0,0,0,0,0,0,0,0,0,0,0,0,-0.0188,-0.0274,-0.0144,-0.008,-0.0073,-0.0007,-0.0005,-0.0003,0.0084,0.0085,0.0086,0.0087,0.0213,0.0217,0.0221,0.023,0,0,0.0235,0.0236,0,0,0,0,0,0,0,0,-0.0193,-0.0183,-0.0091,-0.0084,-0.0076,0.0023,-0.0004,0.0075,0.0084,0.0024,0.0086,0.0087,0.015,0.0159,0.0182,0.0236,0.0241,0.0235,0.0237,0.0239,0.0241,0,0,0,0,0,0,0,-0.0199,-0.0188,-0.009,-0.009,-0.008,-0.0039,-0.0027,0.0011,0.0079,0.0029,0.0036,0.0052,0.0154,0.0178,0.0186,0.0243,0.0235,0.0239,0.0241,0.0243,0.0367,0.0368,0,0,0,0,0,0,-0.0218,-0.0194,-0.0095,-0.0086,-0.0133,-0.0038,-0.0024,-0.001,0.0079,0.0094,0.0051,0.0056,0.017,0.0181,0.0191,0.0234,0.0239,0.0243,0.0246,0.0366,0.0367,0.0368,0,0,0,0,0,0,-0.0222,-0.0211,-0.01,-0.0136,-0.0119,-0.0037,-0.0023,-0.0008,0.0021,0.0096,0.0111,0.0065,0.0171,0.0185,0.0229,0.0238,0.0245,0.0249,0.0366,0.0367,0.0368,0.0301,0,0,0,0,0,0,-0.0226,-0.0213,-0.0216,-0.0138,-0.0118,-0.0061,-0.0023,-0.0006,0.0029,0.0037,0.0113,0.0126,0.0173,0.0222,0.0233,0.0244,0.0253,0.0365,0.0366,0.0367,0.0303,0.03,0.0298,0,0,0,0,0,-0.0231,-0.0236,-0.0217,-0.0205,-0.0122,-0.0061,-0.0047,0.0014,0.0029,0.0042,0.0092,0.0124,0.024,0.0226,0.0239,0.0251,0.0364,0.0366,0.0367,0.0304,0.03,0.0298,0,0,0,0,0,0,-0.0293,-0.0225,-0.0202,-0.0186,-0.0129,-0.0046,-0.0033,0.0006,0.0056,0.0059,0.0125,0.0142,0.0185,0.0227,0.021,0.0294,0.031,0.0314,0.0258,0.0255,0.0253,0.0242,0.0256,0,0,0,0,0,-0.031,-0.0297,-0.0221,-0.0209,-0.0187,-0.0115,-0.0086,-0.0042,0.0015,0.0039,0.0091,0.0149,0.0202,0.0233,0.0282,0.032,0.0359,0.0341,0.0338,0.0336,0.0337,0.0431,0.0437,0.0373,0.0373,0.0373,0,0,-0.0332,-0.0293,-0.0285,-0.0222,-0.0179,-0.0148,-0.0095,-0.0054,-0.0023,0.0042,0.0085,0.0135,0.0208,0.0256,0.0281,0.0293,0.0364,0.0338,0.0335,0.0338,0.0433,0.0439,0.0445,0.0375,0.0374,0.0374,0,0,-0.0362,-0.0335,-0.033,-0.0288,-0.0224,-0.0179,-0.0171,-0.0092,-0.0052,-0.0005,0.0052,0.0107,0.0181,0.0243,0.0282,0.0296,0.0343,0.0313,0.0297,0.0387,0.0393,0.0399,0.0403,0.041,0.0318,0.0318,0.0318,0,-0.0392,-0.037,-0.0319,-0.0298,-0.0271,-0.0199,-0.0183,-0.0133,-0.0048,-0.0012,-0.0,0.0133,0.0179,0.0263,0.0264,0.029,0.0323,0.0296,0.0383,0.039,0.0397,0.0401,0.0409,0.0315,0.0315,0.0315,0.0316,0,-0.0409,-0.0391,-0.0386,-0.0341,-0.0307,-0.0282,-0.0208,-0.017,-0.0125,-0.0063,0.0023,0.0099,0.0188,0.0208,0.0234,0.0314,0.031,0.0361,0.0384,0.0399,0.0402,0.0412,0.031,0.0311,0.0312,0.0313,0,0,-0.0472,-0.0411,-0.041,-0.039,-0.0327,-0.0296,-0.0257,-0.0184,-0.0136,-0.0062,0.002,0.0091,0.0147,0.0195,0.0254,0.0321,0.0366,0.0351,0.0357,0.0341,0.0508,0.0428,0.0431,0.0441,0.0444,0.0446,0.0469,0,-0.0499,-0.0481,-0.044,-0.0419,-0.0401,-0.0332,-0.0294,-0.022,-0.0145,-0.005,0.0049,0.0139,0.0144,0.0197,0.0262,0.0369,0.0399,0.0351,0.0509,0.0511,0.043,0.0444,0.0478,0.0498,0.0479,0.0481,0.0482,0,-0.0526,-0.0507,-0.0501,-0.0438,-0.0425,-0.0404,-0.0322,-0.0272,-0.0135,-0.0069,0.0037,0.0134,0.0245,0.0257,0.0406,0.0379,0.0419,0.0478,0.0483,0.0444,0.0453,0.0494,0.0517,0.0619,0.0498,0.0497,0.0496,0,-0.0587,-0.0544,-0.0545,-0.0527,-0.0454,-0.0434,-0.0393,-0.0284,-0.0215,-0.0067,0.0015,0.0156,0.0257,0.0353,0.0429,0.0445,0.0577,0.0629,0.0574,0.0566,0.0644,0.0639,0.0781,0.0708,0.0708,0.0708,0.0708,0,-0.0626,-0.0616,-0.0573,-0.0568,-0.0545,-0.0483,-0.0429,-0.0359,-0.0225,-0.0132,0.0004,0.0108,0.0295,0.0394,0.0446,0.0514,0.0585,0.0562,0.0584,0.0613,0.0605,0.0736,0.0779,0.0709,0.0709,0.0708,0.0708,0,-0.0676,-0.0654,-0.0644,-0.0593,-0.0573,-0.056,-0.0458,-0.0399,-0.0284,-0.0148,-0.0094,0.0106,0.0224,0.0338,0.0496,0.0532,0.0651,0.059,0.0553,0.0569,0.0631,0.0668,0.0797,0.0827,0.0582,0.058,0.0579,0,-0.0693,-0.0699,-0.0675,-0.0666,-0.0642,-0.0602,-0.0556,-0.0445,-0.0366,-0.0166,-0.0092,0.0064,0.0155,0.0315,0.0433,0.0502,0.0576,0.055,0.0593,0.0628,0.0689,0.0716,0.0735,0.0656,0.0655,0.0654,0.0654,0,-0.0715,-0.0722,-0.0715,-0.0702,-0.0675,-0.0631,-0.0556,-0.0506,-0.036,-0.0267,-0.014,-0.0061,0.013,0.0271,0.0364,0.0412,0.0633,0.0539,0.0652,0.0805,0.0779,0.0819,0.0579,0.065,0.065,0.065,0.0651,0.0651,-0.0729,-0.0739,-0.0734,-0.0717,-0.0694,-0.0651,-0.0623,-0.0543,-0.0465,-0.0318,-0.0226,-0.011,0.0161,0.0327,0.0388,0.0592,0.058,0.0678,0.0726,0.0753,0.0775,0.0446,0.0494,0.0493,0.0493,0.0492,0.0492,0,-0.0723,-0.0728,-0.0727,-0.0715,-0.0701,-0.0675,-0.0604,-0.0576,-0.053,-0.04,-0.0318,-0.0038,0.0182,0.0423,0.0719,0.0813,0.0866,0.0861,0.0982,0.0998,0.0802,0.0798,0.0822,0.0822,0.0822,0.0822,0.0822,0.0822,-0.0717,-0.0716,-0.0719,-0.0705,-0.0702,-0.0678,-0.0656,-0.0631,-0.0547,-0.0408,-0.0246,-0.0099,0.0277,0.0805,0.1078,0.1084,0.1202,0.1167,0.1197,0.1143,0.1133,0.1123,0.1134,0.1227,0.1228,0.1415,0.1418,0.1419]}],[{"header":{"parameterUnit":"m.s-1","parameterCategory":2,"la1":30.2991,"la2":30.254,"lo1":-89.0895,"lo2":-89.0444,"dy":0.0017,"dx":0.0017,"nx":28,"ny":28,"refTime":"2023-10-24T09:00:00:Z","depth":"2","parameterNumber":2,"parameterNumberName":"U-component_of_CURRENTS"},"data":[0,0,0,0,0,0,0,0,0,0,0,0,0,0,0,0,0,0,0,0,0,0,0,0,0,0,0,0,0,0,0,0,0,0,0,0,0,0,0,0,0,0,0,0,0,0,0,0,0,0,0,0,0,0,0,0,0,0,-0.2104,-0.2104,0,-0.2128,-0.2128,-0.2128,-0.2182,-0.2184,-0.2185,-0.2186,-0.2239,-0.2239,-0.224,0,0,0,0,0,0,0,0,0,0,0,0,0,-0.2076,-0.2076,-0.2103,-0.2104,-0.2105,-0.2128,-0.2128,-0.2128,-0.2182,-0.2184,-0.2185,-0.2187,-0.2239,-0.2239,-0.224,0,0,0,0,0,0,0,0,0,0,0,0,0,-0.209,-0.2076,-0.2103,-0.2136,-0.214,-0.2128,-0.2128,-0.2128,-0.2182,-0.2184,-0.2186,-0.2188,-0.2239,-0.2239,-0.224,-0.22,0,0,-0.224,-0.224,0,0,0,0,0,0,0,0,-0.2089,-0.2091,-0.2131,-0.2134,-0.2138,-0.2157,-0.2138,-0.2155,-0.2181,-0.2163,-0.2186,-0.2189,-0.2215,-0.2217,-0.2213,-0.2202,-0.2205,-0.224,-0.224,-0.224,-0.224,0,0,0,0,0,0,0,-0.2088,-0.209,-0.211,-0.2131,-0.2136,-0.2141,-0.2145,-0.2141,-0.2175,-0.2164,-0.2169,-0.2176,-0.2217,-0.2212,-0.2214,-0.2205,-0.224,-0.224,-0.2241,-0.2241,-0.229,-0.2291,0,0,0,0,0,0,-0.209,-0.2089,-0.211,-0.2111,-0.2122,-0.214,-0.2145,-0.2146,-0.2175,-0.2182,-0.2174,-0.2178,-0.2211,-0.2214,-0.2216,-0.2273,-0.224,-0.2241,-0.2241,-0.2289,-0.229,-0.2292,0,0,0,0,0,0,-0.2089,-0.2092,-0.2109,-0.2104,-0.2107,-0.2139,-0.214,-0.2146,-0.2165,-0.2182,-0.219,-0.2191,-0.2213,-0.2216,-0.2231,-0.2272,-0.2241,-0.2241,-0.2287,-0.2289,-0.2291,-0.2321,0,0,0,0,0,0,-0.2088,-0.2091,-0.2096,-0.2103,-0.2107,-0.2131,-0.2139,-0.2145,-0.2166,-0.2172,-0.2198,-0.2204,-0.2214,-0.2231,-0.2231,-0.2272,-0.2241,-0.2286,-0.2288,-0.229,-0.2319,-0.2324,-0.2328,0,0,0,0,0,-0.2087,-0.2105,-0.2096,-0.2099,-0.2112,-0.2132,-0.2135,-0.2162,-0.2165,-0.2183,-0.219,-0.2204,-0.2247,-0.223,-0.2231,-0.2273,-0.2285,-0.2288,-0.229,-0.2317,-0.2323,-0.2328,0,0,0,0,0,0,-0.2097,-0.2112,-0.2103,-0.2123,-0.2133,-0.2143,-0.2162,-0.2165,-0.2181,-0.2193,-0.2197,-0.2203,-0.2235,-0.2242,-0.2224,-0.2296,-0.2277,-0.228,-0.2297,-0.2303,-0.2307,-0.2282,-0.2241,0,0,0,0,0,-0.2096,-0.2113,-0.2119,-0.2132,-0.2138,-0.2142,-0.2153,-0.2172,-0.2184,-0.2195,-0.2216,-0.2235,-0.224,-0.2262,-0.2271,-0.2296,-0.2249,-0.2332,-0.2337,-0.234,-0.2322,-0.2292,-0.2291,-0.23,-0.23,-0.23,0,0,-0.2099,-0.2112,-0.2118,-0.2136,-0.214,-0.2148,-0.2155,-0.2185,-0.2204,-0.2195,-0.2238,-0.2243,-0.2245,-0.2281,-0.2299,-0.2299,-0.2307,-0.2344,-0.2347,-0.2326,-0.2294,-0.2293,-0.2291,-0.2302,-0.2302,-0.2302,0,0,-0.2104,-0.2125,-0.2128,-0.2147,-0.2169,-0.2174,-0.2184,-0.221,-0.224,-0.2266,-0.2264,-0.2278,-0.2316,-0.2318,-0.2318,-0.2348,-0.2322,-0.2385,-0.2402,-0.2374,-0.2372,-0.2369,-0.2276,-0.2265,-0.2403,-0.2403,-0.2403,0,-0.2097,-0.2114,-0.2134,-0.2146,-0.2168,-0.2183,-0.2195,-0.2217,-0.2253,-0.2266,-0.2298,-0.2309,-0.2324,-0.2318,-0.2349,-0.2357,-0.232,-0.2379,-0.2377,-0.2374,-0.2371,-0.2276,-0.2264,-0.2404,-0.2404,-0.2404,-0.2404,0,-0.2101,-0.2122,-0.2135,-0.2148,-0.2171,-0.2201,-0.2229,-0.2262,-0.2297,-0.231,-0.2338,-0.2348,-0.2349,-0.2379,-0.2378,-0.2378,-0.2347,-0.2372,-0.2355,-0.2371,-0.227,-0.2257,-0.2407,-0.2406,-0.2406,-0.2405,0,0,-0.2051,-0.212,-0.2121,-0.2135,-0.2189,-0.2199,-0.2243,-0.2266,-0.2262,-0.233,-0.2322,-0.2364,-0.2366,-0.2365,-0.2373,-0.237,-0.232,-0.2381,-0.2379,-0.2273,-0.2213,-0.2168,-0.2148,-0.2361,-0.236,-0.2359,-0.2138,0,-0.2038,-0.2067,-0.2113,-0.2138,-0.2153,-0.2206,-0.2228,-0.2259,-0.2288,-0.2289,-0.2316,-0.2309,-0.2363,-0.2358,-0.2368,-0.2327,-0.2293,-0.2374,-0.2225,-0.2218,-0.2167,-0.2135,-0.2038,-0.1833,-0.2124,-0.2122,-0.212,0,-0.2007,-0.2043,-0.2069,-0.213,-0.2138,-0.2153,-0.2181,-0.2207,-0.2217,-0.2245,-0.2257,-0.2259,-0.2251,-0.2299,-0.2235,-0.2293,-0.2251,-0.2224,-0.2215,-0.2151,-0.2151,-0.1873,-0.1797,-0.2097,-0.2099,-0.2101,-0.2102,0,-0.1938,-0.2005,-0.203,-0.2057,-0.2118,-0.2137,-0.2162,-0.2182,-0.2182,-0.2193,-0.2174,-0.2184,-0.2151,-0.2148,-0.2126,-0.2177,-0.203,-0.2082,-0.1979,-0.1972,-0.1843,-0.1829,-0.2007,-0.2007,-0.2007,-0.2008,-0.2009,0,-0.1895,-0.1909,-0.1999,-0.2008,-0.2018,-0.2086,-0.2073,-0.2103,-0.2104,-0.2063,-0.2131,-0.2077,-0.2121,-0.206,-0.2066,-0.1966,-0.1975,-0.1943,-0.1916,-0.185,-0.1839,-0.205,-0.2059,-0.2,-0.2001,-0.2003,-0.2005,0,-0.178,-0.1852,-0.1878,-0.196,-0.1978,-0.1976,-0.2012,-0.1977,-0.2019,-0.196,-0.1958,-0.1957,-0.1899,-0.1904,-0.1842,-0.1842,-0.1782,-0.1738,-0.1629,-0.1596,-0.1744,-0.1756,-0.158,-0.1576,-0.1573,-0.1571,-0.1569,0,-0.1714,-0.172,-0.1811,-0.1809,-0.1839,-0.186,-0.1844,-0.1914,-0.188,-0.1871,-0.181,-0.1759,-0.1723,-0.1616,-0.1607,-0.1554,-0.1638,-0.1403,-0.1501,-0.171,-0.1701,-0.1719,-0.1735,-0.131,-0.1306,-0.1303,-0.1301,0,-0.1574,-0.1617,-0.163,-0.1652,-0.1652,-0.1665,-0.1667,-0.1641,-0.1691,-0.1671,-0.1622,-0.1604,-0.1523,-0.1443,-0.1382,-0.1348,-0.1427,-0.1336,-0.1549,-0.147,-0.1449,-0.1444,-0.1469,-0.1272,-0.1275,-0.1277,-0.1279,-0.128,-0.1441,-0.1423,-0.1454,-0.1456,-0.147,-0.1466,-0.1436,-0.1453,-0.1429,-0.14,-0.1432,-0.1391,-0.1367,-0.1256,-0.1181,-0.1122,-0.1232,-0.1189,-0.1201,-0.1216,-0.1261,-0.1241,-0.1027,-0.1028,-0.1029,-0.103,-0.1031,0,-0.1262,-0.1262,-0.1252,-0.1266,-0.1236,-0.1311,-0.1294,-0.1254,-0.1218,-0.1234,-0.1233,-0.111,-0.107,-0.1051,-0.0942,-0.0917,-0.0933,-0.0858,-0.0896,-0.0923,-0.0949,-0.0984,-0.0673,-0.0672,-0.0671,-0.067,0,0,-0.1159,-0.1095,-0.1109,-0.1034,-0.105,-0.0996,-0.0981,-0.0962,-0.0966,-0.0928,-0.0928,-0.1037,-0.1047,-0.0879,-0.0825,-0.0737,-0.0822,-0.0691,-0.098,-0.1052,-0.1076,-0.1137,-0.1222,0,0,0,0,0]},{"header":{"parameterUnit":"m.s-1","parameterCategory":2,"la1":30.2991,"la2":30.254,"lo1":-89.0895,"lo2":-89.0444,"dy":0.0017,"dx":0.0017,"nx":28,"ny":28,"refTime":"2023-10-24T09:00:00:Z","depth":"2","parameterNumber":3,"parameterNumberName":"V-component_of_CURRENTS"},"data":[0,0,0,0,0,0,0,0,0,0,0,0,0,0,0,0,0,0,0,0,0,0,0,0,0,0,0,0,0,0,0,0,0,0,0,0,0,0,0,0,0,0,0,0,0,0,0,0,0,0,0,0,0,0,0,0,0,0,-0.023,-0.0229,0,-0.0147,-0.0146,-0.0145,-0.0069,-0.0069,-0.0068,-0.0067,0.0046,0.0048,0.0051,0,0,0,0,0,0,0,0,0,0,0,0,0,-0.0306,-0.0305,-0.023,-0.0229,-0.0228,-0.0147,-0.0146,-0.0145,-0.0069,-0.0068,-0.0068,-0.0067,0.0046,0.0048,0.0051,0,0,0,0,0,0,0,0,0,0,0,0,0,-0.0252,-0.0304,-0.023,-0.0182,-0.0177,-0.0147,-0.0146,-0.0144,-0.007,-0.0068,-0.0067,-0.0066,0.0045,0.0048,0.0051,0.0049,0,0,0.0062,0.0063,0,0,0,0,0,0,0,0,-0.0255,-0.0249,-0.019,-0.0185,-0.018,-0.0118,-0.0131,-0.0079,-0.007,-0.0109,-0.0067,-0.0066,-0.0008,-0.0,0.0014,0.0054,0.0059,0.0062,0.0064,0.0066,0.0067,0,0,0,0,0,0,0,-0.0259,-0.0252,-0.0196,-0.0189,-0.0183,-0.0158,-0.0149,-0.0121,-0.0065,-0.0106,-0.01,-0.0093,-0.0004,0.0011,0.0018,0.006,0.0062,0.0065,0.0067,0.0068,0.0176,0.0176,0,0,0,0,0,0,-0.0274,-0.0256,-0.0199,-0.0194,-0.0216,-0.0158,-0.0148,-0.0138,-0.0065,-0.0054,-0.0094,-0.009,0.0004,0.0014,0.0022,0.0073,0.0066,0.0069,0.0071,0.0175,0.0176,0.0177,0,0,0,0,0,0,-0.0276,-0.0269,-0.0202,-0.0224,-0.0214,-0.0158,-0.0148,-0.0137,-0.0113,-0.0057,-0.0045,-0.0081,0.0006,0.0017,0.005,0.0076,0.007,0.0073,0.0174,0.0175,0.0176,0.0144,0,0,0,0,0,0,-0.0278,-0.0271,-0.0272,-0.0225,-0.0213,-0.0184,-0.0149,-0.0137,-0.0112,-0.0105,-0.0042,-0.003,0.0008,0.0044,0.0053,0.0081,0.0076,0.0173,0.0174,0.0176,0.0144,0.0144,0.0144,0,0,0,0,0,-0.0281,-0.0284,-0.0272,-0.0265,-0.0215,-0.0184,-0.0176,-0.0132,-0.0113,-0.0105,-0.0065,-0.0032,0.0061,0.0046,0.0057,0.0087,0.0172,0.0174,0.0176,0.0144,0.0144,0.0144,0,0,0,0,0,0,-0.0317,-0.0276,-0.0261,-0.0252,-0.0222,-0.0172,-0.0165,-0.0136,-0.0099,-0.0091,-0.0037,-0.0023,0.0015,0.0051,0.0034,0.0124,0.0128,0.0132,0.0101,0.0101,0.0101,0.0086,0.0079,0,0,0,0,0,-0.0328,-0.032,-0.0278,-0.0273,-0.0261,-0.0216,-0.0199,-0.0168,-0.0129,-0.011,-0.0063,-0.0011,0.0029,0.0063,0.0097,0.0139,0.0173,0.0172,0.0171,0.0171,0.0167,0.0268,0.0277,0.0183,0.0183,0.0183,0,0,-0.0344,-0.032,-0.0316,-0.0281,-0.0256,-0.0243,-0.0202,-0.0178,-0.0153,-0.0106,-0.0061,-0.0023,0.0034,0.0082,0.0106,0.012,0.0206,0.0173,0.0172,0.0169,0.0271,0.028,0.0288,0.0184,0.0184,0.0183,0,0,-0.0368,-0.0348,-0.0348,-0.0326,-0.029,-0.0264,-0.026,-0.0206,-0.0167,-0.0131,-0.0085,-0.0037,0.0028,0.0083,0.0116,0.0135,0.0188,0.016,0.0166,0.0264,0.0272,0.028,0.0287,0.0297,0.0178,0.0178,0.0178,0,-0.0389,-0.0378,-0.0345,-0.0336,-0.0322,-0.0278,-0.0272,-0.0232,-0.017,-0.0134,-0.0121,-0.0008,0.003,0.0108,0.0115,0.0135,0.0175,0.0159,0.0264,0.0273,0.0282,0.0288,0.0298,0.0177,0.0177,0.0177,0.0177,0,-0.0409,-0.0398,-0.0398,-0.0374,-0.0356,-0.0345,-0.0291,-0.0258,-0.0215,-0.0163,-0.0083,-0.0022,0.0054,0.0081,0.0099,0.0192,0.0189,0.0236,0.026,0.0289,0.0293,0.0304,0.0175,0.0175,0.0176,0.0176,0,0,-0.0457,-0.042,-0.042,-0.0409,-0.0372,-0.0357,-0.0322,-0.0266,-0.0225,-0.0152,-0.0075,-0.0011,0.0039,0.0079,0.0134,0.0218,0.0286,0.0254,0.026,0.0251,0.0451,0.0367,0.0371,0.0373,0.0376,0.0378,0.041,0,-0.0482,-0.0479,-0.0449,-0.0444,-0.0437,-0.0385,-0.0353,-0.0294,-0.023,-0.0143,-0.0047,0.003,0.004,0.0089,0.0172,0.0276,0.0324,0.0269,0.0432,0.0434,0.0352,0.0385,0.0376,0.0399,0.0421,0.0423,0.0425,0,-0.0511,-0.0501,-0.0506,-0.0461,-0.0453,-0.0444,-0.038,-0.034,-0.0219,-0.0157,-0.0058,0.0024,0.0143,0.0159,0.0327,0.0301,0.0354,0.0421,0.0426,0.0371,0.0374,0.0386,0.042,0.0444,0.0443,0.0441,0.044,0,-0.0561,-0.0536,-0.0543,-0.0532,-0.0484,-0.0466,-0.0436,-0.0347,-0.029,-0.0156,-0.0087,0.0055,0.0142,0.0268,0.0352,0.0375,0.0521,0.058,0.0533,0.0525,0.0557,0.0546,0.0678,0.0678,0.0678,0.0678,0.0678,0,-0.0595,-0.0594,-0.0567,-0.0568,-0.0556,-0.0508,-0.0467,-0.041,-0.0299,-0.0224,-0.0096,-0.0018,0.0185,0.0284,0.0368,0.0454,0.0527,0.0524,0.0547,0.0536,0.0524,0.0608,0.06,0.0679,0.0679,0.0679,0.0679,0,-0.0638,-0.0626,-0.0629,-0.0595,-0.058,-0.0574,-0.0496,-0.045,-0.0355,-0.0245,-0.0196,-0.004,0.0085,0.0219,0.0402,0.0453,0.0557,0.0547,0.0459,0.0471,0.0491,0.0481,0.0562,0.056,0.0558,0.0556,0.0555,0,-0.0656,-0.0667,-0.0659,-0.0656,-0.064,-0.0612,-0.0577,-0.0489,-0.0428,-0.028,-0.022,-0.0088,0.0002,0.0188,0.032,0.0441,0.0463,0.0464,0.0515,0.0474,0.0489,0.0481,0.0474,0.0529,0.0527,0.0526,0.0525,0,-0.068,-0.069,-0.0691,-0.0689,-0.0673,-0.0642,-0.0584,-0.0548,-0.0433,-0.0356,-0.0262,-0.0187,-0.001,0.0132,0.0255,0.0326,0.0462,0.0441,0.0488,0.0536,0.0441,0.0454,0.045,0.0514,0.0515,0.0516,0.0517,0.0517,-0.0697,-0.0709,-0.0712,-0.0705,-0.0693,-0.0662,-0.064,-0.0575,-0.0512,-0.039,-0.0326,-0.0213,-0.0053,0.0137,0.0241,0.0348,0.0373,0.0427,0.0434,0.0441,0.0408,0.0313,0.0352,0.0352,0.0352,0.0352,0.0352,0,-0.0698,-0.0703,-0.0708,-0.0707,-0.07,-0.0681,-0.0627,-0.0601,-0.0557,-0.0447,-0.0367,-0.0213,-0.0056,0.0097,0.0266,0.036,0.0404,0.0367,0.043,0.0438,0.0446,0.0418,0.0362,0.0363,0.0363,0.0363,0,0,-0.0697,-0.07,-0.0702,-0.0697,-0.0699,-0.0684,-0.0665,-0.0636,-0.0562,-0.0493,-0.0403,-0.0257,-0.006,0.0063,0.0198,0.0286,0.0335,0.0287,0.0268,0.0333,0.034,0.0464,0.0425,0,0,0,0,0]}],[{"header":{"parameterUnit":"m.s-1","parameterCategory":2,"la1":30.2991,"la2":30.254,"lo1":-89.0895,"lo2":-89.0444,"dy":0.0017,"dx":0.0017,"nx":28,"ny":28,"refTime":"2023-10-24T09:00:00:Z","depth":"4","parameterNumber":2,"parameterNumberName":"U-component_of_CURRENTS"},"data":[0,0,0,0,0,0,0,0,0,0,0,0,0,0,0,0,0,0,0,0,0,0,0,0,0,0,0,0,0,0,0,0,0,0,0,0,0,0,0,0,0,0,0,0,0,0,0,0,0,0,0,0,0,0,0,0,0,0,-0.0963,-0.0963,0,-0.0981,-0.0981,-0.0982,-0.103,-0.103,-0.1031,-0.1031,-0.1088,-0.1089,-0.109,0,0,0,0,0,0,0,0,0,0,0,0,0,-0.0945,-0.0946,-0.0963,-0.0963,-0.0962,-0.0981,-0.0982,-0.0982,-0.103,-0.103,-0.1031,-0.1031,-0.1088,-0.1089,-0.109,0,0,0,0,0,0,0,0,0,0,0,0,0,-0.0962,-0.0946,-0.0963,-0.0984,-0.0986,-0.0981,-0.0982,-0.0982,-0.1029,-0.103,-0.1031,-0.1032,-0.1087,-0.1089,-0.109,-0.1084,0,0,-0.1095,-0.1096,0,0,0,0,0,0,0,0,-0.0961,-0.0963,-0.0981,-0.0983,-0.0984,-0.0999,-0.0996,-0.1017,-0.1029,-0.1019,-0.1031,-0.1032,-0.1058,-0.1062,-0.1071,-0.1087,-0.1089,-0.1095,-0.1096,-0.1097,-0.1097,0,0,0,0,0,0,0,-0.096,-0.0963,-0.0975,-0.0981,-0.0983,-0.0984,-0.0988,-0.1,-0.1038,-0.102,-0.1022,-0.1015,-0.106,-0.1069,-0.1072,-0.109,-0.1095,-0.1096,-0.1097,-0.1098,-0.1115,-0.1115,0,0,0,0,0,0,-0.0947,-0.0962,-0.0975,-0.0975,-0.0968,-0.0983,-0.0988,-0.0998,-0.1038,-0.1042,-0.1014,-0.1017,-0.1066,-0.107,-0.1074,-0.1112,-0.1097,-0.1098,-0.1099,-0.1116,-0.1115,-0.1115,0,0,0,0,0,0,-0.0947,-0.0949,-0.0974,-0.0964,-0.0966,-0.0983,-0.0993,-0.0998,-0.1029,-0.1032,-0.1039,-0.1042,-0.1067,-0.1072,-0.111,-0.1113,-0.1099,-0.11,-0.1116,-0.1116,-0.1115,-0.116,0,0,0,0,0,0,-0.0947,-0.0949,-0.0965,-0.0963,-0.0966,-0.0979,-0.0992,-0.0997,-0.1019,-0.1024,-0.1058,-0.1062,-0.1068,-0.1107,-0.1111,-0.1115,-0.1101,-0.1117,-0.1116,-0.1115,-0.1159,-0.1161,-0.1162,0,0,0,0,0,-0.0947,-0.0962,-0.0966,-0.0967,-0.0983,-0.0978,-0.0981,-0.0998,-0.102,-0.1031,-0.1064,-0.1063,-0.1103,-0.1109,-0.1114,-0.1118,-0.1117,-0.1116,-0.1115,-0.1158,-0.116,-0.1162,0,0,0,0,0,0,-0.0962,-0.0967,-0.0972,-0.0989,-0.0985,-0.0985,-0.0999,-0.1009,-0.1045,-0.1057,-0.1076,-0.1083,-0.1121,-0.1104,-0.1111,-0.1114,-0.1102,-0.1102,-0.1132,-0.1135,-0.1136,-0.1134,-0.1103,0,0,0,0,0,-0.0969,-0.0985,-0.098,-0.0991,-0.0995,-0.1002,-0.1008,-0.1013,-0.1032,-0.105,-0.1075,-0.1092,-0.1114,-0.1116,-0.1136,-0.1138,-0.1116,-0.1134,-0.1136,-0.1137,-0.1135,-0.1067,-0.1062,-0.1112,-0.1112,-0.1112,0,0,-0.0975,-0.098,-0.0988,-0.0995,-0.1001,-0.1005,-0.1011,-0.1018,-0.1032,-0.1049,-0.1097,-0.1118,-0.1123,-0.1141,-0.115,-0.1128,-0.1123,-0.1136,-0.1138,-0.1134,-0.1065,-0.1061,-0.1056,-0.1111,-0.1111,-0.1111,0,0,-0.098,-0.1003,-0.1013,-0.1011,-0.1011,-0.1016,-0.1022,-0.1033,-0.1057,-0.1088,-0.1111,-0.1135,-0.1159,-0.1161,-0.1165,-0.118,-0.1153,-0.1173,-0.1163,-0.1098,-0.1093,-0.1089,-0.111,-0.1106,-0.115,-0.115,-0.1151,0,-0.0992,-0.0997,-0.1012,-0.1013,-0.1013,-0.1026,-0.1027,-0.105,-0.1074,-0.1085,-0.1106,-0.1143,-0.1167,-0.117,-0.1185,-0.1187,-0.1163,-0.1163,-0.1101,-0.1095,-0.109,-0.1111,-0.1107,-0.1152,-0.1152,-0.1152,-0.1152,0,-0.0984,-0.0998,-0.1004,-0.1016,-0.1023,-0.1023,-0.1041,-0.1069,-0.1101,-0.1106,-0.1136,-0.1163,-0.1175,-0.1181,-0.1201,-0.117,-0.1176,-0.1132,-0.1099,-0.1088,-0.1112,-0.1107,-0.1155,-0.1155,-0.1154,-0.1154,0,0,-0.0988,-0.0999,-0.1003,-0.1002,-0.1021,-0.1019,-0.1059,-0.1075,-0.1088,-0.1118,-0.1107,-0.1175,-0.118,-0.1184,-0.1193,-0.1139,-0.1128,-0.1119,-0.1115,-0.1149,-0.1033,-0.1017,-0.101,-0.1052,-0.105,-0.1049,-0.1087,0,-0.0979,-0.0975,-0.0991,-0.0996,-0.0994,-0.1024,-0.1051,-0.1069,-0.1096,-0.1091,-0.1102,-0.1112,-0.118,-0.1179,-0.1148,-0.1126,-0.1105,-0.1125,-0.103,-0.103,-0.1021,-0.0999,-0.1042,-0.1083,-0.1081,-0.1081,-0.108,0,-0.0963,-0.0961,-0.0961,-0.0973,-0.0978,-0.0996,-0.1027,-0.1048,-0.1054,-0.1071,-0.1078,-0.1077,-0.1078,-0.1087,-0.1077,-0.108,-0.1077,-0.105,-0.1048,-0.1006,-0.1,-0.108,-0.107,-0.1071,-0.1072,-0.1072,-0.1073,0,-0.093,-0.0943,-0.0942,-0.0943,-0.0962,-0.0987,-0.1011,-0.1041,-0.1044,-0.1045,-0.1019,-0.1032,-0.102,-0.0999,-0.1041,-0.1032,-0.0984,-0.0957,-0.0952,-0.0955,-0.0943,-0.0947,-0.0915,-0.0915,-0.0915,-0.0914,-0.0914,0,-0.0898,-0.0905,-0.0931,-0.0923,-0.0926,-0.0961,-0.0969,-0.1004,-0.1001,-0.0977,-0.1006,-0.098,-0.0981,-0.097,-0.0998,-0.0992,-0.0974,-0.0956,-0.094,-0.0971,-0.0977,-0.0944,-0.0947,-0.0916,-0.0916,-0.0915,-0.0915,0,-0.0864,-0.0879,-0.0875,-0.0899,-0.0906,-0.0913,-0.0935,-0.0924,-0.096,-0.0917,-0.0907,-0.092,-0.0939,-0.0965,-0.0937,-0.0941,-0.0924,-0.0926,-0.1027,-0.1017,-0.0959,-0.0964,-0.0902,-0.0902,-0.0901,-0.09,-0.09,0,-0.0851,-0.0842,-0.0847,-0.0829,-0.0846,-0.0859,-0.085,-0.0896,-0.0876,-0.0892,-0.0839,-0.0858,-0.088,-0.0866,-0.0897,-0.0944,-0.0937,-0.0935,-0.0891,-0.0955,-0.0946,-0.0952,-0.0958,-0.0899,-0.0899,-0.0898,-0.0898,0,-0.0819,-0.0826,-0.0805,-0.0769,-0.076,-0.0732,-0.0733,-0.0721,-0.0762,-0.0779,-0.0783,-0.08,-0.081,-0.0846,-0.0893,-0.0918,-0.0925,-0.0927,-0.0928,-0.0887,-0.095,-0.0943,-0.0949,-0.0896,-0.0896,-0.0896,-0.0896,0,-0.0788,-0.0769,-0.0737,-0.0694,-0.0665,-0.0619,-0.0638,-0.0632,-0.0635,-0.0682,-0.069,-0.0752,-0.0802,-0.0833,-0.0874,-0.0902,-0.0884,-0.0849,-0.0854,-0.0857,-0.0822,-0.0895,-0.0802,0,0,0,0,0,-0.074,-0.0699,-0.0662,-0.0602,-0.0568,-0.0559,-0.0546,-0.057,-0.0621,-0.0612,-0.0663,-0.0697,-0.0761,-0.079,-0.0812,-0.0833,-0.0872,-0.0851,-0.0831,-0.0883,-0.0885,-0.0848,0,0,0,0,0,0,-0.0692,-0.0662,-0.0638,-0.053,-0.0486,-0.0447,-0.0448,-0.0486,-0.0492,-0.0565,-0.0609,-0.0662,-0.0734,-0.0761,-0.0805,-0.0815,-0.0789,-0.0901,-0.09,-0.0881,-0.0883,-0.0886,-0.0848,0,0,0,0,0]},{"header":{"parameterUnit":"m.s-1","parameterCategory":2,"la1":30.2991,"la2":30.254,"lo1":-89.0895,"lo2":-89.0444,"dy":0.0017,"dx":0.0017,"nx":28,"ny":28,"refTime":"2023-10-24T09:00:00:Z","depth":"4","parameterNumber":3,"parameterNumberName":"V-component_of_CURRENTS"},"data":[0,0,0,0,0,0,0,0,0,0,0,0,0,0,0,0,0,0,0,0,0,0,0,0,0,0,0,0,0,0,0,0,0,0,0,0,0,0,0,0,0,0,0,0,0,0,0,0,0,0,0,0,0,0,0,0,0,0,-0.0282,-0.0283,0,-0.0305,-0.0305,-0.0305,-0.0326,-0.0327,-0.0327,-0.0327,-0.0367,-0.0368,-0.0369,0,0,0,0,0,0,0,0,0,0,0,0,0,-0.0256,-0.0257,-0.0282,-0.0283,-0.0283,-0.0305,-0.0305,-0.0305,-0.0326,-0.0327,-0.0327,-0.0328,-0.0367,-0.0368,-0.0369,0,0,0,0,0,0,0,0,0,0,0,0,0,-0.0271,-0.0257,-0.0282,-0.0297,-0.0298,-0.0305,-0.0305,-0.0305,-0.0326,-0.0327,-0.0327,-0.0328,-0.0367,-0.0368,-0.0369,-0.0365,0,0,-0.0372,-0.0373,0,0,0,0,0,0,0,0,-0.027,-0.0272,-0.0294,-0.0296,-0.0298,-0.0314,-0.0311,-0.0327,-0.0326,-0.0315,-0.0327,-0.0328,-0.0351,-0.0354,-0.0355,-0.0367,-0.0369,-0.0372,-0.0373,-0.0373,-0.0374,0,0,0,0,0,0,0,-0.0269,-0.0271,-0.029,-0.0295,-0.0297,-0.0302,-0.0305,-0.0314,-0.0329,-0.0316,-0.0317,-0.0321,-0.0352,-0.0354,-0.0356,-0.0369,-0.0372,-0.0373,-0.0374,-0.0374,-0.044,-0.0441,0,0,0,0,0,0,-0.0268,-0.027,-0.0289,-0.0291,-0.0286,-0.0302,-0.0305,-0.0308,-0.0329,-0.0333,-0.0321,-0.0322,-0.0352,-0.0355,-0.0358,-0.0393,-0.0373,-0.0374,-0.0375,-0.0439,-0.0441,-0.0442,0,0,0,0,0,0,-0.0267,-0.0269,-0.0289,-0.0282,-0.0285,-0.0302,-0.0305,-0.0308,-0.0314,-0.0333,-0.0337,-0.0325,-0.0352,-0.0356,-0.0379,-0.0393,-0.0375,-0.0376,-0.0438,-0.044,-0.0441,-0.0438,0,0,0,0,0,0,-0.0266,-0.0269,-0.0272,-0.0282,-0.0285,-0.0305,-0.0304,-0.0308,-0.0316,-0.0318,-0.0338,-0.0342,-0.0353,-0.0378,-0.038,-0.0394,-0.0377,-0.0437,-0.0439,-0.0441,-0.0437,-0.0439,-0.0442,0,0,0,0,0,-0.0265,-0.027,-0.0271,-0.0274,-0.0288,-0.0306,-0.0309,-0.0322,-0.0316,-0.0327,-0.0339,-0.0341,-0.0393,-0.0379,-0.0382,-0.0397,-0.0436,-0.0438,-0.0441,-0.0436,-0.0439,-0.0442,0,0,0,0,0,0,-0.0263,-0.0273,-0.0275,-0.0283,-0.0298,-0.031,-0.032,-0.032,-0.0336,-0.0337,-0.0348,-0.0354,-0.0377,-0.0391,-0.0375,-0.0425,-0.0418,-0.0421,-0.0413,-0.0416,-0.0418,-0.0419,-0.0378,0,0,0,0,0,-0.0262,-0.0268,-0.028,-0.0289,-0.0296,-0.0304,-0.0312,-0.032,-0.0333,-0.034,-0.0354,-0.0373,-0.0388,-0.0405,-0.042,-0.0444,-0.0429,-0.046,-0.0462,-0.0464,-0.0469,-0.0496,-0.0501,-0.045,-0.045,-0.045,0,0,-0.0267,-0.0271,-0.0277,-0.0289,-0.03,-0.0317,-0.0311,-0.0326,-0.0339,-0.0342,-0.0366,-0.0375,-0.0395,-0.0423,-0.0436,-0.0438,-0.0455,-0.0467,-0.0468,-0.0473,-0.0499,-0.0504,-0.0509,-0.0452,-0.0451,-0.0451,0,0,-0.028,-0.028,-0.0292,-0.0303,-0.0319,-0.0327,-0.0331,-0.0346,-0.0352,-0.0374,-0.0377,-0.0397,-0.0426,-0.0444,-0.0455,-0.0482,-0.046,-0.0491,-0.0511,-0.0537,-0.0541,-0.0545,-0.0457,-0.0453,-0.0501,-0.0501,-0.0501,0,-0.0285,-0.0298,-0.03,-0.0314,-0.0327,-0.0332,-0.0351,-0.0358,-0.038,-0.0388,-0.0388,-0.043,-0.0438,-0.0472,-0.0481,-0.0486,-0.0464,-0.0493,-0.0539,-0.0543,-0.0546,-0.0456,-0.0452,-0.0501,-0.0501,-0.0501,-0.0501,0,-0.031,-0.032,-0.0329,-0.0348,-0.0362,-0.038,-0.0391,-0.0406,-0.0411,-0.0418,-0.0447,-0.0462,-0.0489,-0.0496,-0.0494,-0.0529,-0.0485,-0.0528,-0.0526,-0.0551,-0.0453,-0.0449,-0.0501,-0.0501,-0.0501,-0.0501,0,0,-0.0323,-0.0342,-0.0346,-0.036,-0.038,-0.0396,-0.0417,-0.044,-0.0456,-0.0475,-0.0505,-0.0519,-0.052,-0.0533,-0.0537,-0.0562,-0.0533,-0.0558,-0.0559,-0.0457,-0.0509,-0.0447,-0.0435,-0.0596,-0.0597,-0.0598,-0.0401,0,-0.0345,-0.0373,-0.0376,-0.0412,-0.0429,-0.044,-0.0459,-0.0478,-0.0493,-0.0524,-0.0535,-0.0558,-0.0536,-0.055,-0.0569,-0.0566,-0.0535,-0.0577,-0.0512,-0.0507,-0.0442,-0.0435,-0.0602,-0.0398,-0.0397,-0.0396,-0.0395,0,-0.0371,-0.0384,-0.0418,-0.0441,-0.045,-0.0473,-0.051,-0.0526,-0.0558,-0.0568,-0.0592,-0.0596,-0.0609,-0.0607,-0.0573,-0.0605,-0.0541,-0.0525,-0.0518,-0.0468,-0.0442,-0.0388,-0.0387,-0.0388,-0.0388,-0.0389,-0.0389,0,-0.0386,-0.0414,-0.0441,-0.0452,-0.0481,-0.05,-0.0517,-0.0544,-0.0559,-0.0598,-0.0612,-0.0629,-0.0631,-0.0614,-0.0535,-0.0566,-0.0486,-0.0527,-0.0382,-0.0371,-0.0485,-0.0484,-0.0481,-0.0481,-0.0482,-0.0482,-0.0483,0,-0.0405,-0.043,-0.0453,-0.047,-0.0502,-0.0516,-0.0552,-0.057,-0.0604,-0.0615,-0.063,-0.0632,-0.0646,-0.0595,-0.0536,-0.0419,-0.0467,-0.0364,-0.034,-0.0475,-0.0477,-0.0475,-0.0477,-0.0475,-0.0477,-0.0478,-0.0479,0,-0.0421,-0.0437,-0.0472,-0.0502,-0.0512,-0.0538,-0.0568,-0.059,-0.0609,-0.0632,-0.0639,-0.0634,-0.0556,-0.0502,-0.0442,-0.0391,-0.0312,-0.024,-0.0293,-0.0277,-0.0161,-0.0165,-0.0077,-0.0074,-0.0071,-0.0069,-0.0067,0,-0.0435,-0.0453,-0.0492,-0.0508,-0.0524,-0.0556,-0.0573,-0.0598,-0.061,-0.061,-0.0615,-0.0553,-0.0523,-0.0355,-0.0323,-0.0168,-0.0159,-0.0086,-0.0212,-0.0145,-0.0131,-0.014,-0.0147,-0.0062,-0.0062,-0.0061,-0.006,0,-0.0456,-0.0472,-0.0495,-0.052,-0.0545,-0.057,-0.0589,-0.0593,-0.0603,-0.0623,-0.0563,-0.0494,-0.0388,-0.0312,-0.017,-0.0081,-0.0153,-0.0057,-0.0064,-0.0182,-0.0127,-0.0117,-0.0128,-0.005,-0.0052,-0.0053,-0.0053,0,-0.0472,-0.049,-0.0511,-0.0531,-0.0561,-0.0569,-0.0579,-0.0565,-0.0572,-0.0558,-0.0526,-0.0438,-0.0403,-0.0256,-0.0143,-0.0042,-0.0045,-0.0048,-0.0056,-0.0065,-0.0155,-0.0089,0.0032,0,0,0,0,0,-0.0482,-0.0492,-0.0513,-0.0537,-0.0561,-0.0573,-0.0582,-0.0586,-0.0583,-0.0529,-0.0525,-0.0415,-0.0263,-0.0216,-0.0098,-0.0108,-0.0037,0.003,-0.0047,0.0003,-0.0008,-0.0116,0,0,0,0,0,0,-0.0488,-0.051,-0.0512,-0.0531,-0.0544,-0.0569,-0.0572,-0.0568,-0.053,-0.0514,-0.0428,-0.0398,-0.0248,-0.0324,-0.0101,-0.0074,-0.0109,0.0093,0.0096,0.001,-0.0001,-0.001,-0.0124,0,0,0,0,0]}]]